Location: Petruro
(41.0333°N, 14.7833°E)
Time: 01:08:08
(UTC+00:00)

USA 307 - Visible Passes

Search period start: 24 October 2021 00:00
Search period end: 03 November 2021 00:00
Orbit: 555 x 584 km, 54.0° (Epoch: 27 September)

Date Brightness Start Highest point End Pass type
(mag) Time Alt. Az. Time Alt. Az. Time Alt. Az.
24 Oct 4.5 02:55:53 29° SE 02:55:53 29° SE 02:59:30 10° ENE visible
24 Oct 3.3 04:31:59 12° WSW 04:35:37 43° NNW 04:39:39 10° NE visible
25 Oct 4.1 02:57:17 39° E 02:57:17 39° E 03:00:29 10° ENE visible
25 Oct 3.8 04:33:22 14° W 04:36:29 32° NNW 04:40:16 10° NE visible
26 Oct 4.1 02:58:31 40° ENE 02:58:31 40° ENE 03:01:19 10° NE visible
26 Oct 4.1 04:34:36 14° WNW 04:37:22 25° NNW 04:40:52 10° NNE visible
27 Oct 4.3 02:59:38 33° NE 02:59:38 33° NE 03:02:03 10° NE visible
27 Oct 4.5 04:35:42 13° WNW 04:38:18 20° NNW 04:41:29 10° NNE visible
28 Oct 4.6 03:00:39 27° NNE 03:00:39 27° NNE 03:02:42 10° NE visible
28 Oct 4.7 04:36:43 11° NW 04:39:15 17° NNW 04:42:06 10° NNE visible
29 Oct 4.9 03:01:34 22° NNE 03:01:34 22° NNE 03:03:19 10° NE visible
29 Oct 4.9 04:37:42 10° NW 04:40:13 15° N 04:42:46 10° NNE visible
30 Oct 5.1 03:02:24 18° NNE 03:02:24 18° NNE 03:03:53 10° NE visible
30 Oct 5.0 04:38:55 10° NW 04:41:13 14° N 04:43:31 10° NNE visible
31 Oct 5.2 03:03:12 16° NNE 03:03:12 16° NNE 03:04:27 10° NNE visible
31 Oct 5.1 04:40:01 10° NNW 04:42:13 14° N 04:44:24 10° NNE visible
01 Nov 5.4 03:03:57 14° NNE 03:03:57 14° NNE 03:05:00 10° NNE visible
01 Nov 5.1 04:40:58 10° NNW 04:43:12 14° N 04:45:26 10° NE visible
02 Nov 5.4 03:04:40 13° NNE 03:04:40 13° NNE 03:05:35 10° NNE visible
02 Nov 5.1 04:41:44 10° NNW 04:44:10 15° N 04:46:34 10° NE visible
